Flag for Moldova Weather past 2 weeks in Bălți, Moldova

Now
54 °F

Cool.


Feels Like: 51 °F
Forecast: 49 / 74 °F
Wind: 8 mph from South

Location: Baltsi-Leadoveni - The North of Moldova

Current Time: Apr 25, 2015 at 5:10:19 AM

Latest Report: Apr 25, 2015 at 4:00 AM


Visibility: N/A

Pressure: 29.98 "Hg

Humidity: 47%

Dew point: 34 °F

Location of BălțiLocation

Historic Weather in Bălți — Graph

°F

Bălți temperature yesterday

Maximum temperature yesterday: 73 °F (at 4:30 PM)
Minimum temperature yesterday: 46 °F (at 3:00 AM)
Average temperature yesterday: 60 °F

Past Weeks' High & Low Weather Summary

 TemperatureHumidityPressure
High75 °F (Apr 16, 3:00 PM)100% (Apr 18, 2:00 AM)30.36 "Hg (Apr 18, 2:00 AM)
Low34 °F (Apr 21, 5:30 AM)17% (Apr 12, 3:00 PM)29.65 "Hg (Apr 20, 12:00 PM)
Average52 °F55%30.01 "Hg
* Reported Apr 10 4:00 AM — Apr 25 4:00 AM, Bălți, Weather by CustomWeather, © 2015

Note: Actual official high and low records may vary slightly from our data, if they occured in-between our weather recording intervals... More about our weather records

Advertising

Bălți weather history for previous 24 hours

 ConditionsComfort  
Time TempWeatherWind HumidityBarometerVisibility
4:00 AM
Sat, Apr 25
54 °FCool.8 mph47%29.98 "HgN/A
2:00 AM55 °FRefreshingly cool.8 mph47%29.98 "HgN/A
1:00 AM57 °FRefreshingly cool.9 mph44%29.98 "HgN/A
12:00 AM59 °FRefreshingly cool.10 mph42%29.98 "HgN/A
11:30 PM
Fri, Apr 24
59 °FRefreshingly cool.9 mph42%29.98 "HgN/A
11:00 PM61 °FRefreshingly cool.8 mph39%29.98 "HgN/A
10:30 PM61 °FRefreshingly cool.7 mph39%29.98 "HgN/A
10:00 PM63 °FMild.6 mph37%29.98 "HgN/A
9:00 PM63 °FMild.6 mph37%29.95 "HgN/A
8:00 PM66 °FSunny.7 mph35%29.95 "Hg10 mi
7:00 PM70 °FSunny.8 mph33%29.95 "Hg10 mi
6:30 PM72 °FSunny.8 mph29%29.95 "Hg10 mi
6:00 PM72 °FPassing clouds.7 mph29%29.95 "HgN/A
5:00 PM72 °FPassing clouds.10 mph29%29.95 "HgN/A
4:30 PM73 °FPassing clouds.8 mph29%29.95 "HgN/A
4:00 PM72 °FPassing clouds.9 mph31%29.95 "HgN/A
3:00 PM72 °FPassing clouds.10 mph31%29.98 "HgN/A
2:00 PM70 °FPassing clouds.12 mph33%29.98 "HgN/A
1:30 PM70 °FPassing clouds.12 mph33%30.01 "HgN/A
1:00 PM70 °FMild.12 mph33%30.01 "HgN/A
12:00 PM66 °FMild.10 mph37%30.01 "HgN/A
11:30 AM66 °FMild.9 mph37%30.01 "HgN/A
11:00 AM64 °FMild.7 mph40%30.01 "HgN/A
10:00 AM61 °FRefreshingly cool.7 mph45%30.01 "HgN/A
9:30 AM57 °FRefreshingly cool.8 mph48%30.01 "HgN/A
9:00 AM55 °FRefreshingly cool.6 mph51%30.01 "HgN/A
8:30 AM52 °FCool.7 mph58%30.01 "HgN/A
8:00 AM50 °FCool.9 mph58%30.01 "HgN/A
7:00 AM48 °FCool.9 mph58%29.98 "HgN/A
6:00 AM48 °FCool.9 mph58%29.98 "HgN/A
5:00 AM48 °FCool.9 mph58%29.98 "HgN/A
Weather by CustomWeather, © 2015

See weather overviewHow to use our weather pages